Regional Weather Roundup
Issued by NWS Sterling, VA

Home | Current Version | Previous Version | Text Only | Print | Product List | Glossary Off
Versions: 1 2 3 4 5 6 7 8 9 10 11 12 13 14 15 16 17 18 19 20 21 22 23 24 25 26 27

000
ASUS41 KLWX 241510
RWRLWX

REGIONAL WEATHER ROUNDUP
NATIONAL WEATHER SERVICE BALTIMORE MD/WASHINGTON DC
1100 AM EDT TUE MAY 24 2016

Note: "FAIR" indicates few or no clouds below 12,000 feet
with no significant weather and/or obstructions to visibility.
 TC=TEMPERATURE CELSIUS

 * =Non NWS site. Station does not report precipitation (e.g. rain,
    snow, etc.), thunder, or fog.

DCZ001-MDZ009-015-VAZ040>042-051-053>054-241600-
WASHINGTON METRO

CITY           SKY/WX    TMP DP  RH WIND       PRES   REMARKS
WASHINGTON NAT FAIR      74  55  51 NW10      30.02S
DULLES         FAIR      73  52  47 NW13      30.03S
FT BELVOIR     FAIR      75  54  47 NW10      30.02R
QUANTICO       FAIR      75  56  51 N9        30.03S
COLLEGE PARK*  FAIR      73  54  49 NW7       30.00S
LEESBURG*      FAIR      73  55  53 NW12G24   30.05S
MANASSAS*      SUNNY     75  54  46 NW12      30.03S

$$

MDZ006>007-011-014-241600-
BALTIMORE METRO

CITY           SKY/WX    TMP DP  RH WIND       PRES   REMARKS
BWI AIRPORT    MOSUNNY   74  53  48 NW6       29.99S
MD SCIENCE CTR   N/A     75  48  38 MISG      30.01F
MARTIN STATE   MOSUNNY   73  57  56 NW12      30.00S
ANNAPOLIS      SUNNY     71  53  52 NW9       29.99S
FORT MEADE*    SUNNY     72  55  56 NW6       30.02S

$$

MDZ012-015-019>023-241600-
MARYLAND EASTERN SHORE

CITY           SKY/WX    TMP DP  RH WIND       PRES   REMARKS
OCEAN CITY     MOSUNNY   69  56  62 N9        29.97R
SALISBURY      MOSUNNY   71  56  58 NW13      29.98R
CAMBRIDGE*     SUNNY     68  55  64 NW10      29.99S
EASTON*        MOSUNNY   70  59  68 NW7       30.03R

$$

MDZ017>025-241600-
SOUTHERN MARYLAND

CITY           SKY/WX    TMP DP  RH WIND       PRES   REMARKS
PATUXENT RIVER PTSUNNY   71  55  56 NW13      30.00R
ST INIGOES     SUNNY     70  60  70 SW9       30.00S
LEONARDTOWN*   SUNNY     70  55  60 W8        30.02R

$$

MDZ003>005-241600-
NORTH CENTRAL MARYLAND

CITY           SKY/WX    TMP DP  RH WIND       PRES   REMARKS
FREDERICK*     SUNNY     77  55  47 MISG      30.04
HAGERSTOWN APT SUNNY     72  52  49 NW5       30.04S
WESTMINSTER*   SUNNY     73  61  64 N5        30.02R

$$

MDZ501>502-241600-
WESTERN MARYLAND

CITY           SKY/WX    TMP DP  RH WIND       PRES   REMARKS
OAKLAND*       NOT AVBL
CUMBERLAND*    SUNNY     72  54  53 E5        30.11S

$$

VAZ025>031-241600-
SHENANDOAH VALLEY

CITY           SKY/WX    TMP DP  RH WIND       PRES   REMARKS
WINCHESTER*    FAIR      72  54  53 NW8       30.06S
FRONT ROYAL*   FAIR      72  54  53 NW3       30.06S
LURAY*         FAIR      72  55  56 S5        30.07S
NEW MARKET*    FAIR      72  56  57 CALM      30.07S
STAUNTON*      FAIR      74  58  57 SW3       30.11S
WAYNESBORO*    FAIR      70  55  58 SW3       30.11S

$$

WVZ021-048>050-054>055-241600-
EASTERN WEST VIRGINIA PANHANDLE

CITY           SKY/WX    TMP DP  RH WIND       PRES   REMARKS
MARTINSBURG    FAIR      74  52  46 NW5G20    30.04F
PETERSBURG*    FAIR      75  56  52 N7        30.09F

$$

VAZ036>039-050-241600-
CENTRAL FOOTHILLS

CITY           SKY/WX    TMP DP  RH WIND       PRES   REMARKS
CHARLOTTESVILL FAIR      77  50  38 N10G18    30.05F
CULPEPER*      FAIR      76  55  47 NW5       30.05S
ORANGE*        FAIR      75  59  57 CALM      30.07R
GORDONSVILLE*  FAIR      76  56  50 NW6       30.05S
WARRENTON*     FAIR      77  48  36 NW8       30.04S

$$

VAZ055>057-241600-
NORTH AND CENTRAL PIEDMONT

CITY           SKY/WX    TMP DP  RH WIND       PRES   REMARKS
FREDERICKSBRG* FAIR      73  57  56 NW7       30.03S
STAFFORD*      FAIR      74  56  52 NW14      30.07S

$$

NCZ024-NYZ072-PAZ021-071-VAZ022-071-241600-
OTHER REGIONAL OBSERVATIONS

CITY           SKY/WX    TMP DP  RH WIND       PRES   REMARKS
NEW YORK CITY  LGT RAIN  63  58  83 CALM      29.95S
PHILADELPHIA   PTSUNNY   70  55  59 S7        29.96R
PITTSBURGH     MOSUNNY   72  50  45 W10       30.09F
ROANOKE        FAIR      71  55  56 SW8       30.15S
RICHMOND       FAIR      74  55  51 W8        30.04S
RALEIGH        MOSUNNY   73  57  57 W7        30.13R

$$

ANZ530>537-241600-
MARINE OBSERVATIONS

STATION/POSITION TIME  TEMP    WIND        PRES
                       AIR SEA DIR/SP/G
                 (UTC) (F)     (DEG/KT/KT) (MB)
THOMAS PT LIGHT  1500   70 61  340/ 10/ 11 1016.9R
BALT KEY BRIDGE  1400   69     290/  6/  7 1015.4R
COVE POINT       1400   68     330/ 10/ 15 1016.1R
LEWISETTA        1400   69 63  300/ 12/ 14 1015.7R
SOLOMONS ISLAND  1400   68 62  330/  9/ 12   N/A
PINEY POINT      1400          320/ 15/ 16   N/A

$$





USA.gov is the U.S. government's official web portal to all federal, state and local government web resources and services.